| time (UTC) | temp C | wind direction | speed KPH | gust KPH | rain 1hr cm | rain 24hr cm | rain mn cm | humidity % | barometer mb |
| 20260508013108 | 11 | 159 | 0.0 | 1.6 | 0.00 | 0.10 | 0.10 | 77 | 1008.0 |
| 20260508011605 | 11 | 0 | 0.0 | 0.0 | 0.00 | 0.10 | 0.10 | 75 | 1007.9 |
| 20260508010115 | 11 | 0 | 0.0 | 0.0 | 0.00 | 0.10 | 0.10 | 72 | 1007.7 |
| 20260508004553 | 12 | 0 | 0.0 | 0.0 | 0.00 | 0.10 | 0.10 | 70 | 1007.7 |
| 20260508003105 | 12 | 0 | 0.0 | 1.6 | 0.00 | 0.10 | 0.10 | 68 | 1007.8 |
| 20260508001556 | 13 | 0 | 0.0 | 0.0 | 0.00 | 0.10 | 0.10 | 68 | 1007.7 |
| 20260508000056 | 13 | 0 | 0.0 | 0.0 | 0.00 | 0.10 | 0.10 | 69 | 1007.7 |
| 20260507234551 | 12 | 0 | 0.0 | 0.0 | 0.00 | 0.10 | 0.10 | 71 | 1007.7 |
| 20260507233056 | 12 | 0 | 0.0 | 3.2 | 0.00 | 0.10 | 0.10 | 71 | 1007.7 |
| 20260507231557 | 12 | 0 | 0.0 | 1.6 | 0.03 | 0.10 | 0.10 | 71 | 1008.0 |
| 20260507230055 | 12 | 0 | 0.0 | 1.6 | 0.05 | 0.10 | 0.10 | 73 | 1007.8 |
| 20260507224554 | 12 | 0 | 0.0 | 1.6 | 0.10 | 0.10 | 0.10 | 69 | 1008.3 |
| 20260507223051 | 11 | 281 | 0.0 | 3.2 | 0.10 | 0.10 | 0.10 | 72 | 1008.4 |
| 20260507221551 | 10 | 270 | 0.0 | 9.7 | 0.08 | 0.08 | 0.08 | 76 | 1008.7 |
| 20260507220055 | 11 | 313 | 1.6 | 9.7 | 0.03 | 0.03 | 0.03 | 70 | 1008.8 |
| 20260507214558 | 14 | 315 | 3.2 | 9.7 | 0.00 | 0.00 | 0.00 | 52 | 1008.3 |
| 20260507213058 | 15 | 271 | 1.6 | 14.5 | 0.00 | 0.00 | 0.00 | 49 | 1007.8 |
| 20260507211553 | 15 | 257 | 1.6 | 14.5 | 0.00 | 0.00 | 0.00 | 47 | 1007.8 |
| 20260507210058 | 15 | 289 | 1.6 | 12.9 | 0.00 | 0.00 | 0.00 | 46 | 1007.9 |
| 20260507204548 | 15 | 226 | 1.6 | 6.4 | 0.00 | 0.00 | 0.00 | 51 | 1007.9 |
| 20260507203048 | 15 | 11 | 4.8 | 16.1 | 0.00 | 0.00 | 0.00 | 52 | 1008.1 |
| 20260507201552 | 14 | 255 | 3.2 | 16.1 | 0.00 | 0.00 | 0.00 | 52 | 1008.5 |
| 20260507200055 | 13 | 294 | 3.2 | 17.7 | 0.00 | 0.00 | 0.00 | 54 | 1008.7 |
| 20260507194613 | 14 | 210 | 4.8 | 12.9 | 0.00 | 0.00 | 0.00 | 52 | 1009.1 |
| 20260507193053 | 13 | 201 | 3.2 | 17.7 | 0.00 | 0.00 | 0.00 | 53 | 1009.2 |
| 20260507191604 | 13 | 225 | 3.2 | 17.7 | 0.00 | 0.00 | 0.00 | 51 | 1009.5 |
| 20260507190054 | 15 | 278 | 3.2 | 12.9 | 0.00 | 0.00 | 0.00 | 45 | 1009.7 |
| 20260507184551 | 14 | 264 | 3.2 | 12.9 | 0.00 | 0.00 | 0.00 | 43 | 1009.5 |
| 20260507183103 | 15 | 215 | 3.2 | 11.3 | 0.00 | 0.00 | 0.00 | 42 | 1009.8 |
| 20260507181554 | 15 | 276 | 3.2 | 14.5 | 0.00 | 0.00 | 0.00 | 38 | 1010.0 |
| 20260507180056 | 15 | 271 | 1.6 | 12.9 | 0.00 | 0.00 | 0.00 | 37 | 1010.0 |
| 20260507174554 | 15 | 281 | 3.2 | 14.5 | 0.00 | 0.00 | 0.00 | 37 | 1010.3 |
| 20260507173100 | 15 | 277 | 1.6 | 14.5 | 0.00 | 0.00 | 0.00 | 39 | 1010.5 |
| 20260507171554 | 15 | 147 | 0.0 | 11.3 | 0.00 | 0.00 | 0.00 | 38 | 1011.0 |
| 20260507170056 | 14 | 260 | 1.6 | 11.3 | 0.00 | 0.00 | 0.00 | 38 | 1011.0 |
| 20260507164552 | 14 | 297 | 1.6 | 12.9 | 0.00 | 0.00 | 0.00 | 37 | 1011.3 |
| 20260507163051 | 13 | 143 | 0.0 | 6.4 | 0.00 | 0.00 | 0.00 | 38 | 1011.6 |
| 20260507161556 | 12 | 179 | 1.6 | 9.7 | 0.00 | 0.00 | 0.00 | 39 | 1012.0 |
| 20260507160052 | 13 | 0 | 3.2 | 9.7 | 0.00 | 0.00 | 0.00 | 39 | 1012.1 |
| 20260507154556 | 12 | 269 | 0.0 | 3.2 | 0.00 | 0.00 | 0.00 | 41 | 1012.2 |
| 20260507153104 | 12 | 0 | 1.6 | 6.4 | 0.00 | 0.00 | 0.00 | 43 | 1012.5 |
| 20260507151552 | 11 | 299 | 0.0 | 3.2 | 0.00 | 0.00 | 0.00 | 43 | 1012.7 |
| 20260507144556 | 10 | 290 | 1.6 | 4.8 | 0.00 | 0.00 | 0.00 | 46 | 1012.9 |
| 20260507143105 | 10 | 251 | 0.0 | 8.0 | 0.00 | 0.00 | 0.00 | 47 | 1013.2 |
| 20260507141551 | 8 | 285 | 0.0 | 4.8 | 0.00 | 0.00 | 0.00 | 48 | 1013.2 |
| 20260507140100 | 8 | 288 | 0.0 | 3.2 | 0.00 | 0.00 | 0.00 | 49 | 1013.2 |
| 20260507134556 | 8 | 0 | 0.0 | 6.4 | 0.00 | 0.00 | 0.00 | 51 | 1013.5 |
| 20260507133054 | 7 | 294 | 0.0 | 4.8 | 0.00 | 0.00 | 0.00 | 52 | 1013.5 |
| 20260507131556 | 7 | 0 | 0.0 | 6.4 | 0.00 | 0.00 | 0.00 | 54 | 1013.5 |
| 20260507124557 | 5 | 0 | 0.0 | 0.0 | 0.00 | 0.00 | 0.00 | 63 | 1013.4 |
| 20260507123050 | 5 | 0 | 0.0 | 1.6 | 0.00 | 0.00 | 0.00 | 67 | 1013.5 |
| 20260507121555 | 3 | 0 | 0.0 | 1.6 | 0.00 | 0.00 | 0.00 | 70 | 1013.2 |
| 20260507120053 | 2 | 0 | 0.0 | 0.0 | 0.00 | 0.00 | 0.00 | 73 | 1013.3 |
| 20260507114551 | 2 | 0 | 0.0 | 1.6 | 0.00 | 0.00 | 0.00 | 75 | 1013.2 |
| 20260507113052 | 1 | 0 | 0.0 | 0.0 | 0.00 | 0.00 | 0.00 | 76 | 1013.1 |
| 20260507111551 | 1 | 0 | 0.0 | 0.0 | 0.00 | 0.00 | 0.00 | 76 | 1013.2 |
| 20260507110059 | 1 | 0 | 0.0 | 0.0 | 0.00 | 0.00 | 0.00 | 76 | 1013.2 |
| 20260507104600 | 1 | 0 | 0.0 | 0.0 | 0.00 | 0.00 | 0.00 | 77 | 1013.1 |
| 20260507103117 | 1 | 0 | 0.0 | 0.0 | 0.00 | 0.00 | 0.00 | 76 | 1013.1 |
| 20260507101551 | 1 | 0 | 0.0 | 0.0 | 0.00 | 0.00 | 0.00 | 76 | 1013.1 |
| 20260507100106 | 1 | 0 | 0.0 | 0.0 | 0.00 | 0.00 | 0.00 | 76 | 1013.2 |
| 20260507094553 | 1 | 0 | 0.0 | 0.0 | 0.00 | 0.00 | 0.00 | 75 | 1013.3 |
| 20260507093052 | 1 | 0 | 0.0 | 0.0 | 0.00 | 0.00 | 0.00 | 75 | 1013.2 |
| 20260507091557 | 1 | 0 | 0.0 | 0.0 | 0.00 | 0.00 | 0.00 | 75 | 1013.3 |
| 20260507090059 | 1 | 0 | 0.0 | 0.0 | 0.00 | 0.00 | 0.00 | 74 | 1013.3 |
| 20260507084604 | 2 | 0 | 0.0 | 0.0 | 0.00 | 0.00 | 0.00 | 73 | 1013.3 |
| 20260507083057 | 2 | 0 | 0.0 | 0.0 | 0.00 | 0.00 | 0.00 | 73 | 1013.4 |
| 20260507081559 | 2 | 0 | 0.0 | 0.0 | 0.00 | 0.00 | 0.00 | 72 | 1013.2 |
| 20260507080056 | 2 | 0 | 0.0 | 1.6 | 0.00 | 0.00 | 0.00 | 71 | 1013.2 |
| 20260507074605 | 2 | 0 | 0.0 | 0.0 | 0.00 | 0.00 | 0.00 | 71 | 1013.1 |
| 20260507073052 | 2 | 0 | 0.0 | 0.0 | 0.00 | 0.00 | 0.00 | 71 | 1013.2 |
| 20260507071605 | 3 | 0 | 0.0 | 0.0 | 0.00 | 0.00 | 0.00 | 70 | 1013.3 |
| 20260507070104 | 3 | 0 | 0.0 | 0.0 | 0.00 | 0.00 | 0.00 | 70 | 1013.5 |
| 20260507064557 | 3 | 0 | 0.0 | 1.6 | 0.00 | 0.00 | 0.00 | 69 | 1013.4 |
| 20260507063057 | 3 | 0 | 0.0 | 0.0 | 0.00 | 0.00 | 0.00 | 68 | 1013.5 |
| 20260507061554 | 3 | 0 | 0.0 | 0.0 | 0.00 | 0.00 | 0.00 | 67 | 1013.5 |
| 20260507054609 | 4 | 0 | 0.0 | 0.0 | 0.00 | 0.00 | 0.00 | 64 | 1013.6 |
| 20260507053107 | 4 | 0 | 0.0 | 0.0 | 0.00 | 0.00 | 0.00 | 62 | 1013.6 |
| 20260507051559 | 5 | 0 | 0.0 | 0.0 | 0.00 | 0.00 | 0.00 | 60 | 1013.6 |
| 20260507050100 | 5 | 0 | 0.0 | 0.0 | 0.00 | 0.00 | 0.00 | 59 | 1013.7 |
| 20260507044559 | 5 | 0 | 0.0 | 0.0 | 0.00 | 0.00 | 0.00 | 57 | 1013.6 |
| 20260507043054 | 6 | 0 | 0.0 | 1.6 | 0.00 | 0.00 | 0.00 | 56 | 1013.7 |
| 20260507041602 | 6 | 0 | 0.0 | 1.6 | 0.00 | 0.00 | 0.00 | 55 | 1013.6 |
| 20260507040054 | 6 | 0 | 0.0 | 1.6 | 0.00 | 0.00 | 0.00 | 54 | 1013.6 |
| 20260507034600 | 6 | 0 | 0.0 | 1.6 | 0.00 | 0.00 | 0.00 | 53 | 1013.6 |
| 20260507033055 | 7 | 0 | 0.0 | 1.6 | 0.00 | 0.00 | 0.00 | 52 | 1013.7 |
| 20260507031552 | 7 | 259 | 0.0 | 3.2 | 0.00 | 0.00 | 0.00 | 51 | 1013.7 |
| 20260507030056 | 7 | 0 | 0.0 | 1.6 | 0.00 | 0.00 | 0.00 | 50 | 1013.6 |
| 20260507024554 | 7 | 281 | 0.0 | 1.6 | 0.00 | 0.00 | 0.00 | 49 | 1013.6 |
| 20260507023052 | 8 | 0 | 0.0 | 3.2 | 0.00 | 0.00 | 0.00 | 48 | 1013.4 |
| 20260507021611 | 8 | 0 | 1.6 | 9.7 | 0.00 | 0.00 | 0.00 | 46 | 1013.1 |
| 20260507020109 | 8 | 0 | 1.6 | 8.0 | 0.00 | 0.00 | 0.00 | 45 | 1012.9 |
| 20260507014620 | 8 | 261 | 0.0 | 9.7 | 0.00 | 0.00 | 0.00 | 44 | 1012.8 |